This is the latest recevied weather packets stored in our database for station/object R1CBW-13. If no packets are shown the sender has not sent any weather packets the latest 10 day(s).
| Time | Temp. | Humidity | Pressure | Rain* | Wind** | Luminosity | Snow |
|---|---|---|---|---|---|---|---|
| 1777720621 | 20.56° C | 31% | 1009.1 hPa | 0 mm | - | - | - |
| 1777720561 | 21.11° C | 32% | 1009.1 hPa | 0 mm | - | - | - |
| 1777720501 | 20.56° C | 32% | 1009.2 hPa | 0 mm | - | - | - |
| 1777720441 | 20° C | 32% | 1009.1 hPa | 0 mm | - | - | - |
| 1777720381 | 20° C | 32% | 1009.2 hPa | 0 mm | - | - | - |
| 1777720321 | 19.44° C | 33% | 1009.2 hPa | 0 mm | - | - | - |
| 1777720261 | 19.44° C | 33% | 1009.3 hPa | 0 mm | - | - | - |
| 1777720201 | 20° C | 33% | 1009.1 hPa | 0 mm | - | - | - |
| 1777720141 | 19.44° C | 33% | 1009.2 hPa | 0 mm | - | - | - |
| 1777720081 | 19.44° C | 32% | 1009.3 hPa | 0 mm | - | - | - |
| 1777720021 | 19.44° C | 32% | 1009.3 hPa | 0 mm | - | - | - |
| 1777719961 | 20° C | 32% | 1009.3 hPa | 0 mm | - | - | - |
| 1777719901 | 20.56° C | 31% | 1009.1 hPa | 0 mm | - | - | - |
| 1777719841 | 20.56° C | 33% | 1009.2 hPa | 0 mm | - | - | - |
| 1777719781 | 20° C | 33% | 1009.2 hPa | 0 mm | - | - | - |
| 1777719721 | 20° C | 33% | 1009.3 hPa | 0 mm | - | - | - |
| 1777719661 | 20° C | 33% | 1009.2 hPa | 0 mm | - | - | - |
| 1777719601 | 18.89° C | 34% | 1009.3 hPa | 0 mm | - | - | - |
| 1777719541 | 18.89° C | 35% | 1009.3 hPa | 0 mm | - | - | - |
| 1777719481 | 18.89° C | 34% | 1009.3 hPa | 0 mm | - | - | - |
| 1777719421 | 19.44° C | 33% | 1009.3 hPa | 0 mm | - | - | - |
| 1777719361 | 19.44° C | 33% | 1009.3 hPa | 0 mm | - | - | - |
| 1777719301 | 20° C | 32% | 1009.3 hPa | 0 mm | - | - | - |
| 1777719240 | 20° C | 32% | 1009.3 hPa | 0 mm | - | - | - |
| 1777719180 | 20° C | 32% | 1009.3 hPa | 0 mm | - | - | - |
* Rain latest hour (hover to see other rain measurements)
** Current wind speed in m/s (hover to see current wind gust speed)